Location: Newark
(40.2531°N, 0.7525°W)
Time: 06:12:46
(UTC+00:00)

Envisat - Visible Passes

Search period start: 23 March 2019 00:00
Search period end: 02 April 2019 00:00
Orbit: 764 x 766 km, 98.2° (Epoch: 22 March)

Date Brightness Start Highest point End Pass type
(mag) Time Alt. Az. Time Alt. Az. Time Alt. Az.
23 Mar 5.4 19:41:52 10° SW 19:45:51 23° W 19:49:52 10° NW visible
24 Mar 3.9 19:03:58 10° S 19:08:54 52° W 19:13:52 10° NNW visible
25 Mar 6.0 20:09:24 10° WSW 20:11:39 13° W 20:13:55 10° WNW visible
26 Mar 5.1 19:30:10 10° SSW 19:34:33 29° W 19:38:59 10° NW visible
27 Mar 3.5 18:52:38 10° S 18:57:40 67° WSW 19:02:44 10° NNW visible
28 Mar 5.8 19:57:07 10° SW 20:00:19 17° W 20:03:31 10° NW visible
29 Mar 4.6 19:18:36 10° SSW 19:23:17 37° W 19:27:59 10° NNW visible
31 Mar 5.6 19:45:11 10° SW 19:48:59 21° W 19:52:49 10° NW visible
01 Apr 4.2 19:07:08 10° S 19:12:01 47° W 19:16:55 10° NNW visible
